Retour au catalogue

STARLINK-32473

ActifCommunicationsVLEO
NORAD 62049·PAYLOAD·🇺🇸 United States

Lancé Nov 21, 2024 depuis Cape Canaveral Space Force Station

Loading…

Prochains Passages (prochaines 24 heures)

TLE

FraisSource: CelesTrak SupGP

Époque: Sep 15, 2026, 02:52 UTC

1 62049C 24216T   26258.11993056 -.00015510  00000+0 -56193-3 0  2581
2 62049  42.9998 266.5870 0001288 263.6108 172.7903 15.27577763    13

Suivez STARLINK-32473 en temps réel avec AllMySat

Download on the App Store